Wind_Speed
22 23 23 24 24 24 24 25 26 27 29 30 30 31 31 33 34 35 36 38 39 39 39 40 41 41 41 42 42 42 42 43 43 43 42 41 40 39
24 24 25 25 25 25 25 26 27 27 29 31 32 32 33 33 35 37 38 39 40 41 42 42 42 43 43 44 44 44 44 43 43 44 44 44 43 41
26 27 27 27 27 27 27 27 28 28 29 31 32 33 34 35 36 37 39 40 42 43 44 44 44 45 45 45 46 46 45 45 45 45 45 45 45 44
28 28 28 28 29 29 29 29 30 30 29 30 33 34 35 35 36 38 39 41 43 44 45 46 46 46 47 47 47 48 47 47 46 46 46 46 46 46
30 30 30 30 30 31 31 31 31 31 31 31 32 34 35 37 37 38 39 41 43 45 46 47 48 48 48 48 49 49 49 49 48 48 47 47 47 47
31 31 31 32 32 33 33 33 33 33 33 32 32 33 35 36 37 38 38 40 41 43 45 47 48 49 50 50 50 51 51 51 50 50 49 48 48 48
33 33 34 34 34 34 34 34 34 34 34 33 33 33 34 36 37 37 38 39 40 41 43 46 48 49 51 52 52 52 52 52 52 52 51 51 50 49
34 35 35 36 36 35 35 35 35 35 35 35 34 34 34 36 36 37 37 38 39 41 42 44 46 48 50 52 53 53 53 53 53 53 53 52 51 50
36 36 37 37 37 37 37 37 36 36 35 35 34 34 35 35 36 36 37 37 38 41 42 42 45 46 49 51 53 54 54 54 53 53 54 54 53 52
38 38 38 39 39 39 38 37 37 37 37 36 35 34 35 35 35 36 36 36 37 39 41 41 43 45 48 50 52 54 55 55 55 54 54 54 54 54
40 40 40 40 40 40 39 38 38 38 37 36 35 35 35 35 35 35 35 36 36 37 40 40 41 43 45 47 50 52 54 54 55 55 55 54 55 55
42 42 42 41 41 41 40 39 38 38 37 37 36 35 35 35 36 36 36 36 35 35 38 39 40 42 42 44 47 50 52 53 54 55 55 55 55 55
43 44 44 43 42 42 41 40 39 38 38 37 36 36 36 36 35 35 35 35 35 35 37 39 39 40 41 42 45 48 50 52 53 54 54 55 56 56
45 45 45 45 44 43 42 41 40 39 38 37 37 36 36 35 35 34 34 35 35 35 36 38 39 40 41 41 43 46 49 51 52 53 54 54 55 56
47 47 47 46 45 44 43 42 41 40 39 38 37 37 36 35 35 35 35 34 34 34 35 37 38 40 41 41 43 45 47 50 51 52 53 53 54 55
49 49 48 47 46 45 43 42 42 40 39 38 37 36 36 35 35 34 34 34 33 34 35 36 37 38 40 41 42 44 46 49 51 52 52 53 53 54
51 50 50 48 47 45 44 43 42 41 40 39 37 36 35 35 35 34 33 33 33 33 34 36 36 37 37 39 40 42 45 47 50 52 51 52 53 53
52 51 50 48 47 45 44 43 42 41 40 38 37 36 35 35 34 33 32 32 32 33 33 34 35 36 36 37 38 40 43 45 48 51 51 51 51 53
52 51 49 47 45 44 43 43 41 40 39 38 36 35 35 34 33 33 33 32 32 32 32 33 34 35 35 35 37 40 42 44 46 48 50 50 50 52
52 50 48 46 45 44 43 41 40 38 37 36 36 35 34 33 33 33 33 32 32 31 31 32 33 34 35 36 37 39 41 42 45 47 49 50 50 51
51 48 46 45 43 42 41 39 38 37 36 35 35 34 34 33 32 32 31 32 32 31 31 32 33 34 34 36 36 37 40 42 43 45 47 49 50 50
48 47 44 43 41 40 38 37 36 35 35 34 34 33 33 32 31 31 31 31 31 30 30 31 32 32 32 33 34 36 39 41 42 44 45 47 48 49
44 42 40 39 38 36 35 34 33 33 33 32 32 31 31 30 30 31 31 31 30 29 29 30 30 30 30 31 32 35 37 39 41 43 44 45 47 47
Wind_Direction
317 314 311 307 304 300 296 293 290 287 283 279 275 271 268 264 261 259 256 254 252 250 248 246 245 244 242 240 239 238 237 236 236 235 235 235 235 235
317 316 313 310 306 303 299 295 293 289 285 282 279 275 271 267 263 259 257 254 253 251 249 247 245 243 242 241 240 239 238 236 236 235 235 235 236 235
316 315 313 311 308 305 302 298 296 292 287 284 281 279 275 270 266 262 258 255 253 251 250 248 247 245 242 241 240 239 237 237 236 235 235 235 235 235
314 314 313 311 309 307 304 301 299 295 290 286 283 280 277 274 270 265 261 257 254 252 250 248 247 245 243 241 240 239 238 237 236 235 235 235 235 235
312 312 312 311 309 308 305 303 301 298 293 289 285 282 279 276 272 269 264 260 256 253 251 249 247 245 244 242 240 239 238 237 236 235 235 234 234 234
309 310 311 311 310 309 307 304 302 300 296 292 288 284 281 278 274 271 267 263 259 256 252 249 247 245 244 242 240 239 239 237 236 235 235 235 234 233
308 308 309 309 308 308 306 304 302 301 298 295 291 286 282 279 277 273 269 265 262 259 255 252 249 246 244 242 240 239 238 238 237 236 235 235 235 234
307 308 308 308 307 307 306 303 301 300 298 296 293 288 283 280 278 276 272 267 264 261 257 254 251 248 245 243 241 239 238 238 237 236 235 234 234 234
306 307 307 307 307 306 305 303 301 299 297 296 293 289 285 281 279 277 274 270 265 262 259 256 253 249 246 243 241 239 238 237 237 236 235 235 234 234
305 306 306 306 306 305 304 302 301 300 297 295 293 289 286 283 281 278 275 272 267 264 260 256 254 251 247 244 241 239 238 237 236 235 235 235 234 233
304 305 306 306 306 304 303 301 300 299 298 296 293 290 286 283 281 279 276 273 269 265 261 257 253 252 249 246 242 240 238 236 235 234 234 234 234 233
302 304 304 305 304 302 302 301 299 298 297 296 294 291 286 283 281 279 277 273 269 265 261 258 254 252 250 248 245 241 238 236 236 235 234 234 233 233
301 302 302 303 303 301 300 299 297 296 295 294 293 291 288 284 281 280 277 274 270 265 261 259 256 253 250 247 246 243 239 237 235 234 234 233 233 232
299 299 300 301 301 299 298 297 295 295 294 293 291 290 288 285 282 280 279 275 271 267 262 259 257 254 251 248 245 243 241 237 235 235 234 234 233 232
297 297 298 298 298 297 296 294 293 293 293 292 290 288 286 284 282 280 278 276 272 267 264 261 258 255 252 249 245 243 241 239 236 234 234 233 232 232
295 295 295 296 295 295 294 292 292 291 291 290 289 287 285 283 282 280 278 276 272 268 266 263 259 256 253 250 246 243 241 240 237 235 234 233 232 231
293 294 294 294 293 292 291 290 290 289 289 288 287 285 283 282 281 279 278 276 273 270 267 264 260 257 254 250 246 243 241 239 238 236 233 232 231 230
291 292 292 291 290 290 289 288 288 287 287 287 286 284 282 281 279 278 277 276 274 271 269 264 261 258 254 251 247 244 241 239 237 236 234 231 230 228
290 290 289 288 288 287 286 286 286 286 285 285 284 282 282 280 278 276 276 276 275 272 268 265 263 260 255 251 247 245 241 239 237 235 234 231 228 228
288 288 287 286 285 285 284 283 283 283 282 282 281 281 281 279 277 276 275 274 274 272 268 266 264 261 256 251 248 245 242 239 236 234 232 230 227 226
286 286 285 284 283 283 282 281 281 280 281 280 280 280 279 278 277 276 275 274 273 271 269 266 265 262 257 252 249 244 242 239 235 233 232 230 228 226
284 283 282 281 281 281 280 278 278 278 278 279 280 280 279 278 276 275 275 275 273 271 269 267 265 263 259 254 249 244 241 238 234 232 231 230 228 226
282 280 279 279 278 278 277 276 275 277 278 278 280 280 278 277 276 275 274 274 272 271 268 267 265 262 259 256 250 243 239 236 233 230 228 228 227 225
Height
5823 5821 5819 5816 5814 5812 5811 5809 5808 5806 5804 5803 5803 5803 5804 5804 5805 5806 5807 5809 5811 5813 5815 5818 5821 5824 5828 5831 5835 5839 5843 5847 5852 5856 5861 5865 5869 5873
5818 5815 5812 5810 5808 5805 5803 5802 5800 5798 5796 5794 5793 5793 5793 5794 5794 5795 5796 5798 5800 5802 5805 5807 5810 5814 5817 5821 5825 5829 5833 5837 5842 5846 5851 5856 5860 5865
5812 5809 5806 5803 5800 5798 5796 5794 5792 5790 5788 5785 5783 5783 5782 5783 5783 5784 5785 5787 5788 5790 5793 5796 5799 5802 5806 5810 5814 5818 5823 5827 5832 5836 5841 5846 5851 5856
5806 5802 5799 5796 5793 5790 5788 5785 5783 5781 5779 5777 5774 5773 5772 5771 5772 5772 5773 5774 5776 5778 5781 5784 5787 5790 5794 5798 5802 5807 5811 5816 5821 5826 5831 5836 5840 5845
5799 5796 5792 5789 5786 5782 5779 5776 5774 5771 5769 5768 5765 5763 5761 5760 5760 5760 5761 5762 5763 5765 5768 5771 5774 5778 5782 5786 5790 5795 5800 5805 5810 5815 5819 5825 5830 5835
5791 5788 5785 5781 5778 5774 5771 5767 5764 5762 5759 5757 5755 5753 5751 5749 5749 5749 5749 5749 5751 5753 5755 5758 5761 5764 5769 5773 5778 5782 5787 5792 5797 5803 5808 5813 5819 5824
5783 5780 5777 5773 5769 5766 5762 5758 5755 5752 5749 5747 5745 5743 5740 5738 5737 5737 5738 5737 5738 5740 5742 5745 5748 5751 5755 5759 5764 5769 5774 5779 5785 5790 5796 5802 5807 5813
5775 5772 5768 5764 5760 5757 5753 5749 5746 5742 5739 5736 5734 5732 5730 5728 5726 5726 5726 5726 5727 5728 5729 5731 5734 5737 5741 5745 5750 5755 5761 5766 5772 5777 5783 5789 5795 5801
5766 5763 5759 5755 5751 5747 5743 5740 5736 5732 5730 5727 5724 5721 5719 5717 5716 5715 5714 5714 5715 5715 5716 5719 5720 5723 5726 5731 5736 5741 5747 5752 5758 5764 5770 5776 5782 5789
5757 5753 5749 5745 5741 5737 5733 5729 5725 5722 5719 5716 5714 5711 5708 5706 5704 5704 5703 5702 5703 5702 5703 5706 5707 5709 5712 5717 5721 5727 5732 5738 5744 5750 5757 5763 5769 5776
5746 5742 5739 5735 5730 5726 5723 5719 5715 5711 5708 5705 5702 5700 5697 5695 5693 5692 5691 5691 5691 5690 5690 5693 5695 5696 5699 5703 5707 5712 5718 5724 5730 5737 5743 5749 5756 5762
5736 5732 5728 5724 5720 5715 5711 5708 5705 5701 5697 5694 5691 5688 5686 5684 5682 5681 5680 5679 5679 5679 5678 5680 5682 5684 5687 5691 5694 5698 5704 5710 5717 5723 5730 5736 5742 5749
5724 5720 5716 5712 5708 5704 5700 5697 5693 5690 5687 5683 5680 5677 5675 5672 5671 5669 5668 5667 5667 5668 5667 5668 5670 5672 5675 5678 5681 5685 5691 5696 5703 5709 5716 5722 5729 5736
5712 5708 5704 5700 5696 5692 5688 5685 5682 5678 5676 5672 5669 5667 5664 5661 5660 5658 5657 5656 5656 5656 5655 5656 5658 5659 5662 5666 5669 5673 5677 5683 5689 5696 5702 5709 5715 5723
5699 5696 5691 5687 5683 5680 5676 5673 5670 5666 5664 5661 5658 5655 5653 5650 5648 5647 5645 5644 5644 5644 5644 5644 5645 5647 5649 5653 5657 5660 5664 5670 5676 5682 5688 5695 5702 5709
5685 5682 5678 5674 5670 5667 5664 5660 5657 5654 5652 5650 5647 5644 5642 5639 5638 5636 5634 5633 5633 5633 5632 5632 5633 5635 5637 5640 5644 5648 5652 5657 5662 5668 5675 5682 5689 5696
5670 5667 5663 5660 5657 5654 5651 5648 5645 5642 5640 5637 5635 5633 5630 5628 5627 5625 5624 5623 5622 5622 5621 5620 5621 5623 5625 5628 5631 5635 5639 5644 5649 5654 5661 5669 5676 5684
5655 5652 5649 5645 5642 5640 5637 5634 5632 5629 5627 5625 5623 5621 5619 5617 5616 5614 5613 5612 5611 5610 5610 5609 5610 5611 5614 5617 5620 5623 5627 5631 5635 5641 5648 5656 5664 5671
5639 5637 5633 5631 5628 5625 5623 5621 5619 5617 5615 5613 5611 5609 5608 5606 5605 5603 5602 5601 5600 5600 5599 5599 5599 5600 5602 5605 5608 5610 5614 5618 5623 5629 5636 5643 5651 5658
5623 5621 5618 5616 5613 5611 5609 5608 5606 5604 5602 5601 5599 5597 5596 5595 5593 5592 5591 5590 5590 5589 5589 5588 5588 5589 5591 5593 5596 5599 5602 5606 5611 5617 5623 5630 5638 5646
5607 5605 5603 5601 5599 5597 5596 5594 5593 5592 5590 5589 5587 5586 5584 5583 5582 5581 5580 5580 5579 5579 5578 5578 5577 5578 5579 5581 5584 5588 5590 5594 5599 5605 5612 5619 5626 5634
5591 5589 5587 5586 5585 5584 5583 5582 5581 5580 5579 5577 5576 5574 5573 5572 5571 5570 5570 5569 5568 5568 5568 5567 5567 5567 5568 5570 5572 5575 5578 5582 5588 5594 5600 5608 5614 5623
5575 5574 5573 5572 5571 5571 5570 5570 5569 5568 5567 5566 5565 5564 5562 5561 5560 5560 5559 5559 5558 5558 5557 5557 5557 5557 5557 5559 5561 5564 5567 5571 5577 5583 5590 5597 5604 5611